www.pogodaiklimat.ru

Погода и климат >> Архив погоды >> Россия >> Иркутская область >> Тулун


АРХИВ ПОГОДЫ в Тулуне

Время (UTC), дата Ветер
(напр.,м/с)
 
Видим.   Явления Облачность Т
(С)
Тd
(С)
f
(%)
Тe
(С)
Тes
(С)
Комфортность P
(гПа)
Po
(гПа)
Тmin
(С)
Tmax
(С)
R
(мм)
R24
(мм)
S
(см)
12 15.05 С 2 20 км осадки на расстоянии 9/6 600 м
[Cb calv Ac trans Ci sp]
+6.4 -6.2 40 +5 +5 1007.0 945.2 +9.0
15 15.05 С 3 н/о 9/6 600 м
[Cb calv Ac trans Ci sp]
+5.0 -5.6 46 +2 +2 1009.0 946.7
18 15.05 З 1 н/о 9/5 600 м
[Sc Ac trans Ci sp]
+1.6 -5.0 61 0 0 1010.9 947.8
21 15.05 З 1 20 км 6/3 600 м
[Sc Ac trans Ci sp]
-2.4 -5.6 79 -4 -4 1012.9 948.8
00 16.05 З 2 20 км 3/0
[Ci fib]
+2.1 -5.6 57 -1 +2 1013.2 950.1 -3.3
03 16.05 С 3 20 км 8/8 600 м
[Cb calv]
+7.7 -9.4 29 +6 +8 1012.4 950.5
06 16.05 СЗ 4
{12}
20 км 9/8 600 м
[Cb calv Ci sp]
+7.7 -7.9 32 +5 +7 1013.1 951.2
09 16.05 З 3 20 км 8/8 600 м
[Cb calv]
+8.6 -7.8 30 +7 +8 1013.6 951.8
12 16.05 С 1
{11}
20 км 9/4 600 м
[Cb calv Ac trans Ci sp]
+4.4 -1.2 67 +3 +4 1016.5 953.7 +9.3
15 16.05 З 1 н/о 4/0
[Ac trans Ci sp]
+1.8 -2.2 75 0 0 1018.3 954.9
18 16.05 ЮЗ 1 н/о 3/0
[Ci sp]
-0.9 -2.3 90 -3 -3 1019.6 955.4
21 16.05 ЮЗ 1 20 км 4/0
[Ac trans Ci fib]
-2.2 -3.3 92 -5 -5 1020.4 955.9
00 17.05 З 1 20 км 6/0
[Ac trans Ci fib]
+2.4 -2.7 69 +1 +4 1020.7 957.2 -2.4
03 17.05 З 2 20 км 8/8 600 м
[Cb calv]
+8.1 -5.7 37 +7 +9 1019.1 956.9
06 17.05 В 2 20 км {ливн. осадки} 6/6 600 м
[Cb calv]
+9.7 -8.5 27 +9 +15 1018.0 956.2
09 17.05 З 3 20 км 6/6 600 м
[Cb calv]
+9.9 -9.4 25 +8 +11 1017.8 956.0
12 17.05 СЗ 1 20 км 8/3 600 м
[Cb calv Ci sp]
+9.3 -9.9 25 +10 +10 1018.8 956.9 +11.1 0.0
15 17.05 СЗ 1 н/о 3/0
[Ci sp]
+4.1 -6.4 46 +3 +3 1021.8 958.6
18 17.05 З 1 н/о ясно +0.9 -4.8 66 -1 -1 1023.7 959.6
21 17.05 ЮЗ 1 20 км 1/0
[Ci sp]
-1.3 -5.0 76 -3 -3 1024.9 960.2
00 18.05 З 1 20 км 1/0
[Ci sp]
+3.9 -3.3 59 +3 +7 1025.2 961.7 -1.9
03 18.05 СЗ 2 20 км 8/5 600 м
[Cu med, cong Ci sp]
+9.1 -6.9 32 +8 +13 1024.1 961.8
06 18.05 З 2 20 км 8/8 600 м
[Cb calv]
+11.7 -8.6 23 +11 +14 1022.2 960.6
09 18.05 ЮЗ 3 20 км 5/4 600 м
[Cb calv Ci sp]
+12.5 -9.8 20 +12 +15 1020.6 959.2
12 18.05 СЗ 1 20 км 1/1 600 м
[Cu hum]
+11.9 -10.6 20 +13 +13 1020.6 959.1 +13.1
15 18.05 штиль 0 50 км ?/? +4.1 -8.9 38 +4 +4 1022.8 959.5
18 18.05 Ю 1 н/о 3/0
[Ci fib]
+0.8 -8.2 51 -0 -0 1023.1 959.1
21 18.05 Ю 1 20 км 3/0
[Ci fib]
+0.6 -8.6 50 -1 -1 1022.5 958.4
00 19.05 Ю 1 20 км 9/0
[Ci sp]
+5.2 -6.8 42 +5 +8 1021.3 958.3 -1.7
03 19.05 Ю 5 20 км 8/0
[Ci fib]
+13.5 -8.3 21 +12 +17 1017.6 956.6
06 19.05 ЮВ 4
{10}
20 км 9/1 600 м
[Cu hum Ci fib]
+17.0 -10.9 14 +17 +24 1014.6 954.5
09 19.05 ЮВ 2 20 км 8/1 600 м
[Cu hum Ci sp]
+18.0 -10.0 14 +19 +25 1012.7 952.9
12 19.05 ЮВ 4 20 км 9/3 600 м
[Sc Ci sp]
+17.6 -8.9 16 +17 +18 1011.4 951.6 +18.4
15 19.05 ЮВ 5 н/о 9/0
[Ci sp]
+12.2 -8.7 22 +10 +10 1012.4 951.4
18 19.05 ЮВ 5 н/о 9/0
[Ci sp]
+9.7 -10.8 22 +7 +7 1012.2 950.8
21 19.05 ЮВ 3 20 км 8/0
[Ci sp]
+7.9 -11.0 25 +6 +6 1012.0 950.2
00 20.05 Ю 3 20 км 9/0
[Ac trans Ci sp]
+10.5 -8.5 25 +9 +11 1011.6 950.4 +7.7
03 20.05 ЮВ 3 20 км 9/0
[Ci sp]
+19.0 -5.8 18 +19 +27 1008.7 949.4
06 20.05 ЮВ 2 20 км 9/1 1000 м
[Cu hum Ci sp]
+24.4 -6.3 12 +22 +33 комфорт 1005.2 947.1
09 20.05 ЮЗ 3 20 км 9/6 600 м
[Cb calv Ac trans Ci sp]
+25.1 -5.3 13 +23 +24 комфорт 1003.0 945.2
12 20.05 СЗ 1
{11}
20 км 9/6 600 м
[Cb calv Ac trans Ci sp]
+23.3 -3.3 17 +22 +22 комфорт 1003.8 945.6 +26.2
15 20.05 штиль 0 н/о 9/5 600 м
[Sc Ac trans Ci sp]
+17.5 -2.3 26 +18 +18 1005.1 945.7
18 20.05 Ю 1 н/о 9/5 600 м
[Sc Ac trans Ci sp]
+14.1 -0.1 38 +15 +15 1006.7 946.6
21 20.05 ЮВ 1 20 км 6/3 600 м
[Sc Ac trans Ci sp]
+12.9 +0.2 42 +13 +13 1006.9 946.5
00 21.05 Ю 1 20 км 8/0
[Ac trans Ci sp]
+16.0 +2.2 39 +17 +20 1005.2 945.6 +11.0
03 21.05 Ю 4 20 км 10/0
[Ac trans Cs]
+20.8 +1.8 28 +21 +26 комфорт 1001.6 943.1
06 21.05 ЮЗ 3 20 км 10/3 600 м
[Sc Ac trans Cs]
+23.6 +0.6 22 +23 +27 комфорт 998.0 940.2
09 21.05 ЮЗ 2
{10}
20 км 9/8 600 м
[Cb calv Ac trans Ci sp]
+25.4 -1.1 17 +24 +25 комфорт 995.2 937.9
12 21.05 СЗ 3
{13}
20 км 9/4 600 м
[Cb calv Ac trans Ci sp]
+19.4 +3.3 34 +20 +20 998.4 939.8 +26.0
15 21.05 штиль 0 н/о 9/6 600 м
[Cb calv Ac trans Ci sp]
+15.2 +4.3 48 +15 +15 998.9 939.5
18 21.05 З 3
{11}
н/о 10/8 600 м
[Cb calv Ac As]
+12.0 +7.0 71 +10 +10 1003.0 942.7
21 21.05 ЮЗ 1 20 км слаб. ливневой дождь 10/10 600 м
[Cb calv]
+9.2 +8.5 95 +8 +8 1003.5 942.7
00 22.05 штиль 0 20 км {ливн. осадки} 10/6 600 м
[Cb calv Ac As]
+9.9 +8.7 92 +9 +10 1003.9 943.2 +9.0 4
03 22.05 Ю 2 20 км 9/6 600 м
[Cb calv Ac trans]
+12.1 +8.3 78 +11 +14 1003.6 943.3
06 22.05 СЗ 2 20 км слаб. ливневой дождь 9/9 600 м
[Cb calv]
+10.7 +8.5 86 +9 +11 1003.6 943.1
09 22.05 С 1 20 км {ливн. осадки} 9/8 600 м
[Cb calv Ac trans]
+14.0 +7.5 65 +14 +16 1003.1 943.2

 

Местоположение метеостанции Тулун (Иркутская область, Россия): широта 54.60 долгота 100.60 высота над уровнем моря 522 м.

В архиве по умолчанию представлена погода в Тулуне за последнюю неделю. Архивные данные за месяц целиком и за предыдущие месяцы, начиная с января 2011 года, Вы можете получить, выбрав интересующий диапазон дат из раскрывающегося списка и нажав кнопку "Ввод!".


*Определитесь, кто Вы:
робот инопланетянин человек

Внимание! Время в таблицах - всемирное. Для получения местного времени необходимо прибавить поправку, которая равна 8 ч.

Смотрите также архив погоды в соседних городах и на ближайших метеорологических станциях:

Погода в Тангуе (Иркутская область, Россия) (90 км)
Погода в Нижнеудинске (Иркутская область, Россия) (106 км)
Погода в Зиме (Иркутская область, Россия) (118 км)
Погода в Хадаме (Иркутская область, Россия) (137 км)
Погода в Калтуке (Иркутская область, Россия) (139 км)
Погода в Сараме (Иркутская область, Россия) (144 км)
Погода в Балаганске (Иркутская область, Россия) (169 км)
Погода в Заларях (Иркутская область, Россия) (170 км)
Погода в Нерое (Иркутская область, Россия) (179 км)
Погода в Алыгджере (Иркутская область, Россия) (189 км)

Пояснения к столбцам:

Ветер - указаны скорость ветра в м/с - средняя за 10 мин, порывы в срок и между сроками (в фигурных скобках) и направление, откуда дует ветер: С - северный, СВ - северо-восточный, В - восточный, ЮВ - юго-восточный, Ю - южный, ЮЗ - юго-западный, З - западный, СЗ - северо-западный.
Видимость - горизонтальная дальность видимости в метрах или километрах. При видимости от 1 до 10 км при отсутствии осадков обычно наблюдается дымка, при ухудшении видимости до 1 км и менее - туман. В сухую погоду видимость может ухудшаться дымом, пылью или мглою.
Явления - указаны атмосферные явления, наблюдавшиеся в срок или в последний час перед сроком; фигурными скобками обозначены явления, наблюдавшиеся между сроками (за 1-3 часа до срока); квадратными скобками обозначены град или гололедные отложения с указанием их диаметра в мм.
Облачность - указаны через наклонную черту общая и нижняя облачность в баллах и высота нижней границы облаков в метрах; квадратными скобками обозначены формы облаков: Ci - перистые, Cs - перисто-слоистые, Cc - перисто-кучевые, Ac - высококучевые, As - высокослоистые, Sc - слоисто-кучевые, Ns - слоисто-дождевые, Cu - кучевые, Cb - кучево-дождевые. Подробнее классификацию облаков см. в Атласе облаков (PDF).
T - Температура воздуха - температура, измеренная на высоте 2 м над землей.
Td - Температура точки росы - температура, при понижении до которой содержащийся в воздухе водяной пар достигнет насыщения.
f - Относительная влажность воздуха - влажноcть воздуха, измеренная на высоте 2 м над землей.
Te - Эффективная температура - температура, которую ощущает одетый по сезону человек в тени. Характеристика душности погоды. При расчете учитывается влияние влажности воздуха и скорости ветра на теплоощущения человека.
Tes - Эффективная температура на солнце - температура, которую ощущает человек, с поправкой на солнечный нагрев. Характеристика знойности погоды. Зависит от высоты солнца над горизонтом, облачности и скорости ветра. Ночью, в пасмурную погоду, а также при ветре 12 м/с и более поправка равна нулю.
P - Атмосферное давление - приведенное к уровню моря атмосферное давление.
Po - Атмосферное давление - измеренное на уровне метеостанции атмосферное давление.
Tmin - Минимальная температура - минимум температуры воздуха на высоте 2 м над землей.
Tmax - Максимальная температура - максимум температуры воздуха на высоте 2 м над землей.
R - Количество осадков - Количество выпавших осадков за период времени, мм. При наведении курсора мыши на число - период времени, за который выпало указанное количество осадков.
R24 - Количество осадков - Количество выпавших осадков за 24 часа, мм.
S - Снежный покров - Высота снежного покрова, см. При наведении курсора мыши на число - состояние снежного покрова и степень покрытия местности в баллах.